Location: Coupvray
(48.8929°N, 2.7967°E)
Time: 04:34:13
(UTC+00:00)

Cosmos 1184 Rocket - Pass Details

Date: 14 July 2020
Orbit: 408 x 421 km, 81.2° (Epoch: 06 August)

Event Time Altitude Azimuth Distance (km) Brightness Sun altitude
Exits shadow 00:49:50 52° 135° (SE) 527 3.0 -18.4°
Maximum altitude 00:50:16 58° 98° (E) 492 3.0 -18.4°
Drops below altitude 10° 00:53:29 10° 19° (NNE) 1,506 6.8 -18.3°
Sets 00:55:33 0° 15° (NNE) 2,378 8.3 -18.2°
